Weather History for Yoho Park, BC

Change the Weather History Date:

Saturday, March 23, 2013

  Actual Average Record
Temperature  
Mean Temperature 9 °F -  
Max Temperature 25 °F - - ()
Min Temperature -7 °F - - ()
Degree Days  
Heating Degree Days 56    
Moisture  
Dew Point 3 °F    
Average Humidity 73    
Maximum Humidity 86    
Minimum Humidity 48    
Precipitation  
Precipitation 0.00 in - - ()
Sea Level Pressure  
Sea Level Pressure 30.43 in    
Wind  
Wind Speed 5 mph ()    
Max Wind Speed 13 mph    
Max Gust Speed -    
T = Trace of Precipitation, MM = Missing Value Source: Averaged Metar Reports

Daily Weather History Graph

Daily Weather History Graph

Search for Another Location

Airport:

Trip Planner

Search our weather history database for the weather conditions in past years. The results will help you decide how hot, cold, wet, or windy it might be!

Date:

Astronomy

Mar. 23, 2013 Rise Set
Actual Time 7:40 AM MDT 8:04 PM MDT
Civil Twilight 7:07 AM MDT 8:37 PM MDT
Nautical Twilight 6:27 AM MDT 9:17 PM MDT
Astronomical Twilight 5:45 AM MDT 9:59 PM MDT
Moon 4:14 PM MDT (3/23) 5:42 AM MDT (3/23)
Length of Visible Light 13h 30m
Length of Day
12h 23m
Waxing Gibbous, 85% of the Moon is Illuminated
Mar 23
Waxing Gibbous
Mar 27
Full
Apr 2
Last Quarter
Apr 10
New
Apr 18
First Quarter

Hourly Weather History & Observations

Time (MDT) Temp. Windchill Dew Point Humidity Pressure Visibility Wind Dir Wind Speed Gust Speed Precip Events Conditions
12:00 AM 5 °F - -0 °F 68% 30.36 in - East 3.5 mph - -  
12:00 AM 5.4 °F -1.7 °F -0.4 °F 77% 30.36 in - East 3.5 mph - N/A   Unknown
1:00 AM 3.4 °F -4.0 °F -1.5 °F 80% 30.39 in - ENE 3.5 mph - N/A   Unknown
2:00 AM 1.2 °F -6.4 °F -3.5 °F 81% 30.39 in - ENE 3.5 mph - N/A   Unknown
3:00 AM -0.4 °F -8.3 °F -5.6 °F 79% 30.41 in - ENE 3.5 mph - N/A   Unknown
4:00 AM -3.1 °F -11.4 °F -9.6 °F 74% 30.43 in - ENE 3.5 mph - N/A   Unknown
5:00 AM -4.0 °F -12.4 °F -10.3 °F 74% 30.44 in - East 3.5 mph - N/A   Unknown
6:00 AM -6 °F - -12 °F 62% 30.45 in - ENE 4.6 mph - -  
6:00 AM -6.0 °F -16.9 °F -12.3 °F 74% 30.45 in - ENE 4.6 mph - N/A   Unknown
8:00 AM -7.4 °F -16.3 °F -13.4 °F 75% 30.49 in - ENE 3.5 mph - N/A   Unknown
9:00 AM -6.5 °F - -12.1 °F 77% 30.50 in - ENE 2.3 mph - N/A   Unknown
10:00 AM -0.0 °F - -3.8 °F 84% 30.48 in - Calm Calm - N/A   Unknown
11:00 AM 12.0 °F - 6.8 °F 80% 30.43 in - West 2.3 mph - N/A   Unknown
12:00 PM 21 °F - 10 °F 48% 30.40 in - WSW 12.7 mph - -  
12:00 PM 21.0 °F 8.6 °F 9.5 °F 61% 30.40 in - WSW 12.7 mph - N/A   Unknown
1:00 PM 25.0 °F 14.2 °F 12.4 °F 59% 30.38 in - WSW 11.5 mph - N/A   Unknown
2:00 PM 22.3 °F 12.2 °F 11.5 °F 63% 30.39 in - WSW 9.2 mph - N/A   Unknown
3:00 PM 21.4 °F 12.8 °F 11.3 °F 65% 30.40 in - West 6.9 mph - N/A   Unknown
4:00 PM 21.0 °F 9.3 °F 12.7 °F 70% 30.42 in - West 11.5 mph - N/A   Unknown
5:00 PM 20.5 °F 10.8 °F 13.5 °F 74% 30.42 in - SW 8.1 mph - N/A   Unknown
6:00 PM 20 °F - 14 °F 69% 30.44 in - WSW 11.5 mph - -  
6:00 PM 20.3 °F 8.3 °F 14.2 °F 77% 30.44 in - WSW 11.5 mph - N/A   Unknown
7:00 PM 18.1 °F 7.9 °F 14.2 °F 84% 30.45 in - WSW 8.1 mph - N/A   Unknown
8:00 PM 16.5 °F 4.3 °F 12.9 °F 86% 30.46 in - WSW 10.4 mph - N/A   Unknown
9:00 PM 14.2 °F 6.7 °F 9.9 °F 83% 30.48 in - West 4.6 mph - N/A   Unknown
10:00 PM 11.8 °F - 7.2 °F 81% 30.48 in - West 2.3 mph - N/A   Unknown